User: anonymous   Login
Location: Edinburgh
(55.9500°N, 3.1600°W)
Time: 16:23:27
(UTC+01:00)
Language:

CUBEBUG 2 - Orbit

View from above orbital plane
View from above orbital plane
View from above satellite
View from above satellite

Ground track
Ground track

The orbit data is extracted from the following two-line orbital elements,

1 39440U 13066AA  18266.59466048 +.00000203 +00000-0 +35444-4 0  9990
2 39440 097.6009 275.9819 0079154 235.3254 124.0479 14.75722711259239
Epoch (UTC): 23 September 2018 14:16:18
Eccentricity: 0.0079154
inclination: 97.6009°
perigee height: 587 km
apogee height: 698 km
right ascension of ascending node: 275.9819°
argument of perigee: 235.3254°
revolutions per day: 14.75722711
mean anomaly at epoch: 124.0479°
orbit number at epoch: 25923

The dashed part of the orbit path shows where the satellite is in the earth's shadow,  

DLR